SB KEPS @ AMSAT $ORB08031.N 2Line Orbital Elements 08031.AMSAT
HR AMSAT ORBITAL ELEMENTS FOR AMATEUR SATELLITES IN NASA FORMAT FROM WA5QGD FORT WORTH,TX January 31, 2008 Send Subscribe/unsubscribe to KEPS at http://www.amsat.org/mailman/listinfo/keps BID: ORB08031.N
DECODE 2-LINE ELSETS WITH THE FOLLOWING KEY: 1 AAAAAU 00 0 0 BBBBB.BBBBBBBB .CCCCCCCC 00000-0 00000-0 0 DDDZ 2 AAAAA EEE.EEEE FFF.FFFF GGGGGGG HHH.HHHH III.IIII JJ.JJJJJJJJKKKKKZ KEY: A-CATALOGNUM B-EPOCHTIME C-DECAY D-ELSETNUM E-INCLINATION F-RAAN G-ECCENTRICITY H-ARGPERIGEE I-MNANOM J-MNMOTION K-ORBITNUM Z-CHECKSUM
TO ALL RADIO AMATEURS BT
AO-07 1 07530U 74089B 08030.66978313 -.00000027 00000-0 10000-3 0 00947 2 07530 101.4858 066.7114 0012060 172.0914 188.0348 12.53573411519629 AO-10 1 14129U 83058B 08028.89929780 -.00000072 00000-0 10000-3 0 04653 2 14129 025.9366 233.2570 6035146 094.0530 332.5554 02.05869724185215 UO-11 1 14781U 84021B 08030.48619328 -.00000006 00000-0 65045-5 0 05840 2 14781 098.1714 062.3262 0009451 154.3290 205.8381 14.79613590283349 RS-15 1 23439U 94085A 08030.92065965 -.00000039 00000-0 10000-3 0 00965 2 23439 064.8189 358.6366 0151230 149.0818 211.9115 11.27551677539378 FO-29 1 24278U 96046B 08030.83006679 -.00000022 00000-0 15160-4 0 07101 2 24278 098.5813 325.2378 0350161 213.5881 144.2608 13.52935262565686 SO-33 1 25509U 98061B 08030.37011656 -.00000053 00000-0 -25091-4 0 01235 2 25509 031.4333 021.2561 0355470 253.5115 102.6170 14.28191677483753 AO-40 1 26609U 00072B 08030.26782122 -.00000388 00000-0 10000-3 0 11 2 26609 007.3250 100.0120 7926963 046.7796 356.2403 01.25583275 33295 VO-52 1 28650U 05017B 08031.21335527 -.00000070 00000-0 -21663-5 0 8445 2 28650 097.8053 101.5115 0026240 229.6077 130.2886 14.81413679148179 PO-63 1 29712U 07001D 08031.78435619 .00000441 00000-0 65127-4 0 1473 2 29712 097.8933 092.4549 0015269 106.6274 253.6605 14.80003768 57145 AO-16 1 20439U 90005D 08029.51439287 -.00000021 00000-0 72654-5 0 02402 2 20439 098.2157 016.8194 0010057 231.1126 128.9163 14.31782563940935 LO-19 1 20442U 90005G 08029.51503972 -.00000019 00000-0 81556-5 0 01631 2 20442 098.1917 025.7442 0011204 228.2281 131.7954 14.32021827941088 AO-27 1 22825U 93061C 08030.51553216 -.00000190 00000-0 -58301-4 0 08876 2 22825 098.3649 355.8764 0007941 316.5550 043.5001 14.29228223747965 IO-26 1 22826U 93061D 08031.78355567 .00000009 00000-0 19841-4 0 5898 2 22826 098.3588 358.0669 0008339 308.3786 051.6651 14.29476925748235 PO-28 1 22829U 93061G 08029.52867740 -.00000102 00000-0 -23189-4 0 08621 2 22829 098.3474 357.0320 0008851 283.9547 076.0643 14.30178316748166 GO-32 1 25397U 98043D 08031.58964494 -.00000082 00000-0 -18006-4 0 5145 2 25397 098.3849 073.4241 0000395 302.9566 057.1580 14.23137275496648 MO-46 1 26548U 00057D 08030.47744831 -.00000060 00000-0 10603-4 0 00112 2 26548 064.5558 199.4688 0013345 342.9389 017.1271 14.83222134397243 NO-44 1 26931U 01043C 08030.75599132 .00000118 00000-0 78581-4 0 07958 2 26931 067.0531 281.2709 0004695 268.5492 091.5054 14.29511328330628 SO-50 1 27607U 02058C 08030.48624407 -.00000104 00000-0 62465-5 0 5173 2 27607 064.5588 114.8580 0078711 307.0639 052.3254 14.71321969274567 CO-55 1 27844U 03031E 08030.75236195 .00000042 00000-0 39962-4 0 2241 2 27844 098.7174 040.9272 0010099 151.5335 208.6379 14.20557591237780 CO-57 1 27848U 03031J 08030.52065068 -.00000007 00000-0 16936-4 0 01808 2 27848 098.7175 039.8242 0009882 156.0960 204.0671 14.20369701237724 AO-51 1 28375U 04025K 08029.51152404 .00000006 00000-0 14583-4 0 00191 2 28375 098.0863 061.8347 0083037 216.3993 143.1534 14.40595198188299 CO-56 1 28941U 06005C 08031.72816562 .00022861 25528-5 19947-3 0 8071 2 28941 098.1045 124.5453 0192398 177.8667 182.3416 15.49293840108707 HO-59 1 29484U 06041F 08031.69365263 .00073247 41956-5 30892-3 0 898 2 29484 098.2513 124.3047 0135595 154.4812 206.3217 15.72772878 76717 NO-61 1 29664U 06055F 07359.16654419 .14620719 12705-4 12723-3 0 7381 2 29664 051.6179 150.0690 0003189 248.8461 111.8136 16.51627846 58777 CP4 1 31122U 07012F 08030.67104782 .00000551 00000-0 13192-3 0 02516 2 31122 098.0573 101.3013 0086327 039.7274 321.0147 14.55082084041932 CP3 1 31128U 07012M 08030.67936795 -.00000047 00000-0 00000-0 0 02465 2 31128 098.0569 099.8677 0103374 043.6511 317.2844 14.51908909041839 LIBERT 1 31129U 07012N 08031.69555126 .00000339 00000-0 89029-4 0 7150 2 31129 098.0587 100.8720 0103077 040.6082 320.2697 14.51999856 41967 NOAA-10 1 16969U 86073A 08030.56814286 .00000009 00000-0 22006-4 0 09876 2 16969 098.7344 052.7386 0011845 223.0965 136.9303 14.27349028111665 NOAA-11 1 19531U 88089A 08031.26856432 -.00000182 00000-0 -71677-4 0 233 2 19531 098.8011 122.5156 0012302 100.4348 259.8204 14.14863566998402 NOAA-12 1 21263U 91032A 08031.42041136 -.00000084 00000-0 -16661-4 0 5288 2 21263 098.7649 033.4017 0012841 162.0652 198.0994 14.25513798868765 MET-3/5 1 21655U 91056A 08030.92892448 .00000051 00000-0 10000-3 0 03889 2 21655 082.5496 202.0314 0013829 003.8399 356.2822 13.17014144791384 MET-2/21 1 22782U 93055A 08030.65470348 -.00000010 00000-0 -22556-4 0 00528 2 22782 082.5444 221.4518 0021743 321.8306 038.1310 13.83624778727970 OKEAN-4 1 23317U 94066A 08030.83552546 .00000040 00000-0 20159-5 0 04946 2 23317 082.5368 084.1675 0020849 219.7798 140.1898 14.82573371717789 NOAA-14 1 23455U 94089A 08030.83126586 -.00000031 00000-0 75710-5 0 00002 2 23455 098.9618 102.9134 0009709 171.6798 188.4546 14.13733311674804 SICH-1 1 23657U 95046A 08030.83048954 -.00000055 00000-0 -10015-4 0 2928 2 23657 082.5248 225.1090 0022853 211.7328 148.2501 14.81546218669739 NOAA-15 1 25338U 98030A 08031.42500416 .00000089 00000-0 56380-4 0 3363 2 25338 098.5471 026.8439 0011603 084.2351 276.0141 14.24684431505180 RESURS 1 25394U 98043A 08030.70244836 -.00000026 00000-0 67574-5 0 08477 2 25394 098.4069 080.8368 0000618 246.3842 113.7272 14.24152739496738 FENGYUN1 1 25730U 99025A 08030.95416155 .00000118 00000-0 94490-4 0 03814 2 25730 098.7128 011.4759 0020554 198.2900 161.7532 14.07673326449513 OKEAN-0 1 25860U 99039A 08030.51976186 .00000018 00000-0 99559-5 0 02786 2 25860 097.7416 027.2691 0001572 047.9941 312.1398 14.73499234458979 NOAA-16 1 26536U 00055A 08031.42962261 .00000212 00000-0 13993-3 0 7863 2 26536 099.1464 017.6657 0009823 251.3192 108.6907 14.12468651379327 NOAA-17 1 27453U 02032A 08030.83825805 .00000017 00000-0 26042-4 0 07846 2 27453 098.5526 099.3710 0012436 148.3088 211.8825 14.23945118291114 NOAA-18 1 28654U 05018A 08030.86185160 -.00000145 00000-0 -56011-4 0 02942 2 28654 098.8543 333.5949 0014421 348.6134 011.4713 14.11132156138960 HUBBLE 1 20580U 90037B 08030.64986272 .00000305 00000-0 10810-4 0 00688 2 20580 028.4670 146.7591 0003217 355.4675 004.5883 15.00331414774159 UARS 1 21701U 91063B 08030.54075289 .00003855 00000-0 66085-4 0 02961 2 21701 056.9753 045.7782 0080955 272.0861 087.0927 15.50401113900984 PO-34 1 25520U 98064B 08030.33277061 .00000340 00000-0 69996-5 0 09240 2 25520 028.4608 028.3490 0005776 209.2706 150.7564 15.17123253512052 ISS 1 25544U 98067A 08032.07775766 .00025213 00000-0 15027-3 0 8280 2 25544 051.6429 003.3475 0005874 004.6241 044.5090 15.77753168526894 OO-38 1 26063U 00004C 08031.80490561 -.00000040 00000-0 66958-5 0 1251 2 26063 100.2110 081.5081 0036627 236.2039 123.5648 14.35826239419855 UWE-1 1 28892U 05043C 08030.26600794 .00000001 00000-0 98754-5 0 09636 2 28892 098.1107 287.1064 0018268 121.4888 238.8083 14.59587054120331 CO-58 1 28895U 05043F 08029.41523674 .00000069 00000-0 24093-4 0 09363 2 28895 098.1153 286.5757 0018948 124.5116 235.7860 14.59629300120093 NCUBE2 1 28897U 05043H 08031.65788334 .00000108 00000-0 32281-4 0 4660 2 28897 098.1132 288.7095 0018058 118.5209 241.7816 14.59798091112700 FCAL 1 29667U 06055J 08031.89902088 .00032361 11836-4 66648-4 0 7183 2 29667 051.6328 326.0199 0009476 154.3357 205.8100 16.00293170 64466 FALCON 1 30776U 07006E 08031.86440029 .00000308 00000-0 25584-4 0 2386 2 30776 035.4342 266.2538 0001904 291.0767 068.9749 15.02866423 49478 MAST 1 31126U 07012K 08030.24469176 .00000057 00000-0 23561-4 0 02449 2 31126 098.0565 100.1248 0095655 042.8864 317.9760 14.53396112041830 CAPE1 1 31130U 07012P 08030.95138172 .00000022 00000-0 15887-4 0 02300 2 31130 098.0598 100.1330 0103760 042.6733 318.2467 14.51926239041669 /EX
participants (1)
-
Ray Hoad